RH
64 64 57 50 58 62 66 63 69 69 73 96 97 90 94 94 73 68 81 72 58 76 72 66 42 38 40 30 37 30 27 31 33 32 28 24 21 21 25 23 24 30 31 30 26 21 19
66 66 64 55 45 46 60 66 63 70 76 83 90 87 78 78 61 63 60 57 64 64 50 36 34 34 34 39 36 30 26 27 30 30 25 20 19 19 20 22 23 27 28 24 20 20 24
48 59 58 49 37 37 44 49 66 66 66 72 73 78 67 65 68 64 72 62 48 35 37 37 34 33 34 45 34 27 24 24 30 28 21 18 17 17 17 21 20 20 19 21 24 26 28
44 42 42 38 33 32 36 39 44 48 56 60 63 72 64 60 57 54 51 41 34 35 38 33 28 29 40 39 30 24 24 23 24 23 19 18 16 14 17 19 23 23 22 14 27 31 33
35 40 41 38 35 32 31 32 35 38 40 46 52 55 55 53 48 44 38 34 34 36 37 34 27 27 31 32 27 21 20 20 19 18 17 14 15 26 26 30 29 36 18 24 24 39 40
32 30 30 30 32 33 31 29 28 34 32 34 43 44 41 38 33 30 30 36 32 38 39 37 34 24 30 31 24 21 18 19 20 19 18 23 26 45 53 34 23 29 28 27 26 41 45
29 29 28 26 25 25 26 27 27 28 31 30 31 32 34 38 39 35 38 36 34 31 44 49 48 48 41 33 28 24 23 24 21 18 38 42 60 49 46 43 37 36 32 31 30 52 46
64 62 59 56 41 24 22 23 23 24 27 30 31 32 34 33 32 32 39 40 37 39 45 42 43 41 37 26 24 29 25 24 25 47 42 43 57 51 50 41 39 39 36 32 38 50 48
48 45 44 46 52 40 22 21 20 21 22 26 31 30 31 36 33 31 28 30 37 39 38 38 38 42 43 29 39 37 32 37 46 56 57 42 52 48 46 45 42 52 41 48 50 59 47
54 58 57 54 46 44 43 23 20 19 21 24 25 25 27 24 26 25 28 30 30 36 64 36 40 41 44 39 40 43 39 38 46 52 53 56 48 49 49 51 42 33 55 54 58 59 39
57 60 60 59 56 51 40 33 19 21 21 23 22 22 22 24 21 27 28 33 31 45 53 30 40 41 42 36 37 37 39 32 47 56 34 49 51 52 54 56 47 55 56 60 62 86 80
56 56 57 56 55 55 49 38 19 18 21 22 20 21 22 20 22 24 27 30 46 64 40 47 42 44 40 42 45 40 38 40 46 54 59 58 53 56 54 53 55 59 59 64 85 84 77
54 54 54 54 50 48 51 44 36 16 18 21 20 22 24 24 27 26 31 47 65 61 33 42 50 43 46 49 43 38 40 46 54 42 60 61 66 59 55 58 61 57 61 57 50 71 61
53 51 48 49 48 44 44 48 39 32 16 18 21 24 26 26 26 27 35 39 46 39 40 41 46 42 46 44 42 43 45 49 45 59 84 58 42 61 59 59 64 60 48 62 21 42 52
47 42 36 36 44 44 35 43 42 31 18 16 21 23 24 29 31 38 42 76 54 43 40 45 43 43 40 40 38 42 47 51 49 43 38 51 46 58 60 61 54 62 77 55 54 61 76
42 40 36 35 34 33 34 30 42 36 21 20 22 26 30 37 40 42 60 68 55 53 53 45 38 39 42 42 40 39 44 47 48 44 42 41 32 55 64 59 64 59 58 60 78 32 42
41 36 33 31 27 25 26 24 36 38 32 26 26 23 32 36 34 27 81 69 55 51 52 44 42 37 38 38 36 32 41 48 46 45 41 39 33 36 57 66 60 73 72 66 65 65 47
31 33 32 28 24 20 17 22 30 33 32 29 35 53 29 40 38 71 75 57 52 51 46 46 44 41 36 34 32 36 42 44 48 44 47 49 47 59 45 54 56 53 51 60 62 30 62
20 21 21 25 28 21 17 20 31 33 32 35 42 42 38 28 58 73 56 56 56 50 48 45 45 42 38 36 30 35 45 46 49 47 50 46 42 55 32 49 49 58 65 56 60 71 68
23 21 19 19 26 25 21 21 30 35 34 36 38 67 41 31 45 55 52 55 47 50 48 46 44 42 38 38 39 36 43 47 51 52 47 42 50 35 35 22 54 55 52 67 63 86 67
28 25 22 21 30 29 28 27 33 34 35 40 42 59 55 69 58 44 44 44 51 48 50 48 44 44 39 39 39 38 38 53 53 56 56 54 54 64 60 53 46 50 47 57 77 63 48
28 26 25 26 39 38 35 42 41 39 39 41 49 55 58 61 57 47 50 40 39 41 43 45 48 40 45 39 35 32 41 44 43 65 63 68 58 64 68 58 63 70 64 60 54 53 61
33 30 28 28 37 46 52 50 50 47 42 57 61 62 64 71 64 60 55 40 41 41 41 41 41 44 42 42 37 41 35 37 39 64 72 74 70 76 80 72 70 69 61 64 64 59 53
38 36 35 32 35 46 49 64 68 61 56 55 64 62 65 72 68 64 54 50 50 52 49 44 43 44 47 48 48 51 53 53 53 57 56 81 73 77 86 73 81 50 39 54 57 54 54
48 38 48 50 38 47 53 52 71 71 67 63 64 66 66 81 76 61 56 57 56 57 55 49 47 46 49 51 65 71 74 57 60 62 68 65 73 76 83 88 70 47 36 38 41 36 41
89 90 73 71 66 48 62 60 62 73 71 72 74 75 70 74 75 64 61 57 69 73 67 54 54 54 52 68 75 73 73 68 66 71 65 66 65 69 91 91 85 48 33 32 30 53 44
93 95 96 98 94 91 68 78 76 71 79 76 81 82 79 75 70 68 64 70 64 64 72 62 55 59 57 82 84 88 78 65 70 75 83 81 81 78 77 90 81 56 46 34 51 51 42
69 80 91 96 98 99 99 86 91 90 94 95 89 88 90 83 76 76 75 72 68 62 72 60 66 71 79 81 88 85 89 76 67 64 74 78 86 90 84 93 93 46 40 43 44 47 53
64 65 78 94 96 100 100 99 100 100 99 99 99 97 98 92 80 77 72 71 70 71 69 66 66 71 67 82 87 89 90 87 76 82 62 74 62 69 70 69 50 48 39 46 54 58 57
Wind_Speed
25 26 28 28 27 28 30 30 25 20 19 21 19 17 17 14 15 18 16 17 23 15 18 18 11 4 8 5 6 10 10 15 14 13 14 10 7 4 5 4 4 4 3 4 4 3 1
21 23 26 27 28 26 24 25 24 23 23 18 20 20 17 16 19 18 22 24 21 19 18 9 4 5 4 4 10 10 11 15 13 12 11 9 6 7 9 4 4 4 6 5 3 2 3
17 18 21 23 26 25 23 20 18 19 21 21 15 15 16 19 20 20 20 21 18 17 11 12 12 7 11 8 11 10 12 13 13 12 11 9 12 3 7 5 6 8 4 2 5 3 2
16 16 18 20 22 23 22 20 17 14 13 15 17 15 14 14 18 16 17 20 14 12 9 9 9 3 5 9 12 11 11 11 11 11 10 10 9 11 5 11 5 4 5 2 3 6 3
14 14 15 17 18 19 20 20 20 18 16 14 12 13 13 15 17 16 16 10 10 8 6 8 8 5 4 9 10 12 11 13 12 11 11 9 4 6 5 5 4 7 2 1 2 5 4
16 16 15 15 15 16 16 17 16 16 16 12 13 15 15 14 13 14 14 13 8 6 8 9 7 6 4 6 10 12 12 11 9 13 8 3 5 4 4 5 4 4 2 2 3 5 5
19 19 19 18 16 15 14 14 14 12 12 13 14 16 14 12 12 10 12 11 4 6 25 11 9 11 10 12 11 10 10 10 8 7 4 6 7 2 2 2 3 5 3 0 2 3 5
21 21 22 21 19 16 13 12 11 11 9 6 2 3 6 3 2 0 3 1 5 10 13 15 14 16 12 7 7 10 6 4 5 4 3 6 3 1 2 3 4 4 2 2 3 2 3
22 24 25 25 23 20 15 12 9 8 8 6 6 9 11 14 12 11 13 14 10 4 5 9 13 10 8 8 7 10 6 5 6 5 5 6 1 2 2 5 4 3 2 1 2 7 1
23 25 26 27 27 24 19 13 9 7 7 7 6 2 5 8 7 6 5 3 1 1 5 10 9 7 8 4 7 11 7 4 6 4 3 5 2 2 3 4 2 1 2 2 2 4 2
22 24 26 28 29 28 25 17 9 7 6 6 6 3 2 2 3 1 1 1 2 1 5 7 5 4 8 7 4 9 10 7 4 3 3 1 2 4 5 2 2 2 2 2 2 4 4
20 22 24 26 28 29 28 24 13 6 5 5 7 5 2 3 2 2 2 2 0 6 1 5 4 4 4 8 4 4 6 8 5 5 6 2 2 3 2 3 3 3 4 6 4 3 3
18 20 22 24 27 28 29 28 20 8 5 5 8 7 2 2 2 3 3 1 5 6 3 3 2 3 4 5 4 4 4 5 3 5 3 4 2 2 1 2 1 5 6 4 5 3 5
16 18 21 22 24 27 29 29 26 12 5 4 10 9 6 3 2 3 4 4 8 2 2 1 1 2 4 3 3 3 3 3 5 4 3 4 5 1 2 2 2 2 5 5 5 2 4
15 17 19 21 24 26 27 28 28 18 9 3 1 14 12 8 5 4 2 6 5 3 1 3 1 4 3 2 3 4 3 1 0 2 4 3 2 2 3 2 2 2 2 2 5 2 3
13 15 17 19 21 24 27 28 27 24 11 8 4 3 15 8 7 6 5 3 1 1 2 0 2 1 2 1 3 2 1 1 1 1 1 3 1 1 1 2 2 2 4 2 3 1 4
11 14 16 19 21 22 23 26 27 26 16 9 5 3 17 9 7 6 4 2 1 1 1 2 2 2 2 2 3 1 3 1 1 1 2 3 3 2 2 4 6 1 1 2 2 4 4
12 13 14 15 18 21 22 22 23 25 22 9 6 4 18 8 5 4 3 3 1 2 3 3 3 3 1 1 1 2 4 2 1 3 3 1 4 3 6 1 3 3 5 5 4 4 2
12 14 16 15 15 18 19 20 21 20 20 10 4 5 13 11 4 3 1 3 4 4 4 4 2 2 1 3 1 3 3 2 2 3 5 4 1 2 6 4 2 4 5 4 3 2 6
11 12 13 15 17 17 18 17 18 19 20 8 2 3 7 12 8 4 2 3 2 3 2 3 2 3 2 1 3 2 2 1 1 1 4 3 3 5 6 4 3 4 5 6 5 3 4
11 13 15 15 14 17 17 16 15 16 16 7 6 2 2 2 6 4 3 1 2 2 1 1 2 1 1 1 1 2 1 1 0 2 2 3 3 3 6 8 5 5 7 8 9 7 7
11 11 13 14 13 13 15 16 15 16 14 13 5 3 2 2 2 4 5 3 0 1 2 1 1 1 4 4 6 4 5 4 5 1 4 1 2 1 5 3 3 6 12 14 16 13 11
13 12 12 13 13 12 12 14 15 16 15 10 10 7 3 4 2 2 4 2 2 3 2 3 5 1 3 6 7 5 7 4 5 8 7 5 3 2 5 4 7 7 7 8 4 5 9
15 14 13 12 12 13 12 12 12 14 14 11 11 8 6 3 1 2 2 2 6 6 2 3 2 2 2 2 7 8 9 10 7 8 7 6 5 3 4 4 2 6 3 6 8 6 13
14 15 14 13 13 13 13 11 11 11 11 9 7 6 3 2 2 5 4 4 4 4 8 8 7 6 3 6 3 4 2 3 2 1 5 4 4 2 3 3 7 8 2 4 4 5 2
19 17 15 13 14 14 13 13 10 10 9 8 5 5 2 1 3 2 1 2 2 3 5 3 4 4 5 4 3 2 3 3 2 1 6 3 1 3 2 3 5 2 1 0 2 5 5
24 22 20 16 16 16 14 14 13 11 10 8 6 4 2 2 2 3 4 2 2 2 2 5 3 2 3 2 3 4 5 5 5 6 5 3 1 9 6 4 7 7 8 1 2 3 3
21 24 25 21 18 19 17 15 15 13 12 10 8 6 6 4 11 12 10 8 6 5 3 1 3 2 2 1 3 3 3 3 2 3 5 7 7 4 4 4 8 5 2 4 2 5 10
21 22 24 24 23 22 21 19 18 15 13 13 15 12 10 10 10 16 12 10 11 11 8 5 3 2 5 1 1 0 3 1 3 3 0 3 5 4 9 6 2 5 4 1 5 15 16
Wind_Direction
52 49 47 48 46 41 40 49 46 47 57 65 82 96 98 96 92 100 109 133 131 135 137 131 128 157 164 145 100 141 157 152 149 147 147 145 147 128 110 109 86 82 138 93 109 100 73
44 42 42 41 41 41 43 44 45 48 57 64 81 87 94 97 97 100 104 108 124 125 125 120 143 183 211 86 105 132 151 150 152 147 154 149 152 125 101 73 74 101 104 105 78 22 13
39 32 30 28 28 38 39 38 44 48 53 58 74 77 85 105 99 103 117 122 130 129 121 108 112 134 114 77 98 121 142 144 151 150 148 138 133 124 112 98 104 122 75 29 29 14 16
34 31 24 24 25 24 33 40 42 45 47 52 61 91 93 98 106 114 123 132 130 125 113 109 124 102 75 94 101 112 125 132 147 148 140 131 116 106 71 116 48 56 53 56 347 356 6
31 27 26 23 21 22 23 32 40 45 56 64 78 91 96 103 112 116 120 120 116 106 82 108 105 105 80 94 106 99 114 120 127 131 128 126 106 82 90 82 32 11 162 208 314 27 334
25 22 24 25 23 22 25 26 39 52 55 72 84 92 94 96 100 102 108 101 99 99 93 87 84 93 67 71 87 95 105 113 110 118 106 87 60 68 34 63 203 188 149 247 265 345 2
37 30 24 22 21 23 24 30 30 45 72 79 97 93 83 92 98 101 116 120 81 70 65 68 63 84 78 89 85 90 103 96 92 68 58 29 66 78 101 42 115 107 104 244 294 22 338
45 39 33 26 22 22 25 28 34 35 50 82 96 329 340 322 241 101 187 131 110 123 72 66 70 70 65 78 83 69 78 77 63 68 360 28 81 211 299 44 79 58 90 320 290 1 5
45 42 37 33 27 24 23 24 27 36 40 42 78 79 68 73 92 92 102 107 119 112 89 35 38 42 35 56 54 28 47 70 80 57 18 114 136 347 50 43 75 37 68 47 259 323 47
46 42 38 35 32 27 21 18 21 26 31 34 32 32 77 77 88 91 99 116 172 223 79 336 356 25 13 52 54 39 42 68 43 125 89 80 335 75 72 73 55 80 41 73 21 32 279
42 38 35 32 29 27 25 20 20 25 30 30 23 17 10 137 157 253 21 298 295 179 66 311 339 19 34 74 117 22 38 57 76 86 92 249 43 56 68 39 14 137 62 64 72 66 36
38 33 30 29 28 25 24 23 20 31 32 34 30 14 299 287 303 285 286 295 188 45 267 343 331 1 44 31 46 54 59 67 96 76 37 78 53 52 100 67 72 135 76 44 52 68 10
31 29 26 23 23 24 22 20 21 15 30 31 16 12 7 299 299 290 297 248 38 87 262 323 11 22 69 13 37 46 37 25 70 67 1 22 4 3 84 114 56 66 52 338 351 9 221
23 21 18 18 19 18 18 18 17 16 13 70 47 30 24 30 352 334 326 53 69 183 198 221 9 66 85 4 33 47 75 63 36 76 99 127 325 40 12 84 165 79 133 154 235 244 274
12 13 13 10 10 12 14 18 16 20 15 351 350 39 43 40 42 9 323 50 180 217 230 134 79 82 28 39 101 72 63 120 87 57 124 125 294 5 49 36 92 141 186 163 103 0 32
6 8 8 11 10 7 8 12 18 17 19 10 10 2 21 23 6 354 67 128 139 252 328 358 96 56 116 25 66 79 207 251 161 127 124 176 41 29 22 70 35 171 158 68 5 212 270
360 1 4 6 5 8 8 8 12 15 16 19 15 21 4 352 354 39 94 173 174 33 22 51 134 105 115 150 134 153 178 324 170 162 83 120 110 295 42 200 182 136 228 89 133 163 202
344 351 359 5 7 4 5 7 11 11 12 23 33 46 4 357 36 46 65 4 29 32 33 49 76 66 103 74 89 157 208 225 186 167 163 173 142 210 210 291 205 198 209 160 134 223 229
347 344 349 355 7 7 7 5 7 11 9 23 65 26 13 15 65 13 33 62 62 31 24 14 72 48 125 153 166 171 188 167 169 153 165 184 359 5 341 356 349 232 206 170 118 83 207
335 340 346 351 356 4 12 9 8 10 6 16 57 35 36 51 66 104 33 9 52 42 53 27 26 32 46 32 22 219 232 301 80 123 120 114 164 194 198 209 134 218 208 192 164 150 200
323 333 338 346 353 355 3 11 10 12 10 4 27 58 66 360 10 60 65 76 15 342 13 56 39 185 156 212 331 260 205 3 1 155 124 122 241 177 266 249 251 242 222 196 206 206 201
319 323 327 332 340 352 355 3 11 7 13 35 39 16 63 106 130 84 7 20 175 255 170 286 254 236 186 194 194 214 167 189 208 138 168 148 257 145 284 326 226 264 249 234 235 235 256
310 317 319 321 323 334 350 354 1 10 13 35 21 7 352 352 2 106 179 149 330 345 256 252 201 163 240 246 234 248 229 215 185 165 185 164 159 59 272 348 320 293 248 206 190 204 210
292 300 307 310 308 313 326 342 353 5 19 31 19 10 347 311 0 285 253 195 167 161 214 305 272 218 333 297 296 272 257 249 228 217 183 150 139 148 264 345 241 240 221 179 201 229 216
293 283 287 299 297 294 302 316 334 348 4 14 27 22 16 299 314 332 317 300 288 258 188 185 193 217 291 333 355 334 312 303 229 195 203 176 143 220 244 227 299 295 149 132 168 288 219
287 294 288 285 293 290 287 293 306 317 331 340 2 13 9 341 259 228 257 292 294 311 322 271 245 221 186 131 127 206 260 278 290 19 21 97 39 172 148 213 238 265 36 68 144 283 357
275 276 280 287 286 289 290 288 291 297 302 309 321 346 337 260 256 254 251 226 227 224 243 303 315 274 211 120 177 194 231 183 212 188 170 149 192 220 230 266 284 264 303 292 116 269 15
281 274 269 270 276 276 280 282 285 294 301 288 286 299 309 254 272 263 253 239 242 215 173 315 340 245 60 193 192 237 211 254 288 161 181 172 164 193 155 212 269 274 249 189 217 53 7
278 277 271 260 260 266 270 269 275 280 282 288 286 287 287 271 271 284 258 237 236 244 258 227 234 198 223 123 262 333 250 246 203 263 338 239 206 186 192 214 220 355 239 24 79 351 344